Вернуться в каталог

SL-24 R/B

АктивенPO
NORAD 28367·ROCKET BODY·🇷🇺 Russia

Запущен Jun 29, 2004 с Baikonur Cosmodrome

Loading…

Ближайшие Пролёты (ближайшие 24 часа)

TLE

СвежийSource: Space-Track

Эпоха: Sep 14, 2026, 07:50 UTC

1 28367U 04025B   26257.32676021  .00000051  00000-0  45940-4 0  9998
2 28367  98.2211 204.8463 0349259 354.1601 169.7068 13.88649978125299

Отслеживайте SL-24 R/B в реальном времени с AllMySat

Download on the App Store